This is the latest recevied weather packets stored in our database for station/object KF0ZH. If no packets are shown the sender has not sent any weather packets the latest 10 day(s).
| Time | Temp. | Humidity | Pressure | Rain* | Wind** | Luminosity | Snow |
|---|---|---|---|---|---|---|---|
| 1777942322 | 10° C | 55% | 1003.5 hPa | 0 mm | 4.02 m/s, 347° | - | - |
| 1777942020 | 10.56° C | 55% | 1003.3 hPa | 0 mm | 3.58 m/s, 306° | - | - |
| 1777941720 | 10.56° C | 55% | 1003.2 hPa | 0 mm | 2.24 m/s, 324° | - | - |
| 1777941419 | 10.56° C | 55% | 1003.1 hPa | 0 mm | 6.26 m/s, 303° | - | - |
| 1777940820 | 11.11° C | 53% | 1003 hPa | 0 mm | 2.68 m/s, 336° | - | - |
| 1777940522 | 11.11° C | 52% | 1002.9 hPa | 0 mm | 4.92 m/s, 336° | - | - |
| 1777940221 | 11.11° C | 52% | 1002.8 hPa | 0 mm | 4.02 m/s, 281° | - | - |
| 1777939921 | 11.11° C | 52% | 1002.8 hPa | 0 mm | 4.92 m/s, 327° | - | - |
| 1777939620 | 11.67° C | 52% | 1002.7 hPa | 0 mm | 2.24 m/s, 322° | - | - |
| 1777939320 | 11.67° C | 52% | 1002.7 hPa | 0 mm | 3.58 m/s, 358° | - | - |
| 1777939021 | 11.11° C | 52% | 1002.6 hPa | 0 mm | 6.71 m/s, 285° | - | - |
| 1777938722 | 11.11° C | 52% | 1002.6 hPa | 0 mm | 0.89 m/s, 338° | - | - |
| 1777938421 | 11.67° C | 52% | 1002.6 hPa | 0 mm | 1.34 m/s, 317° | - | - |
| 1777938121 | 11.67° C | 52% | 1002.5 hPa | 0 mm | 3.13 m/s, 303° | - | - |
| 1777937830 | 11.67° C | 51% | 1002.4 hPa | 0 mm | 3.58 m/s, 306° | - | - |
| 1777937521 | 11.67° C | 52% | 1002.4 hPa | 0 mm | 3.13 m/s, 316° | - | - |
| 1777937221 | 11.67° C | 51% | 1002.1 hPa | 0 mm | 3.13 m/s, 334° | - | - |
| 1777936921 | 11.67° C | 52% | 1002.1 hPa | 0 mm | 3.13 m/s, 334° | - | - |
| 1777936621 | 11.67° C | 52% | 1002 hPa | 0 mm | 3.13 m/s, 338° | - | - |
| 1777936321 | 11.67° C | 52% | 1001.9 hPa | 0 mm | 2.68 m/s, 310° | - | - |
| 1777936021 | 11.67° C | 52% | 1001.9 hPa | 0 mm | 6.26 m/s, 315° | - | - |
| 1777935721 | 11.67° C | 51% | 1001.8 hPa | 0 mm | 4.92 m/s, 322° | - | - |
| 1777935421 | 12.22° C | 51% | 1001.5 hPa | 0 mm | 2.68 m/s, 270° | - | - |
| 1777935123 | 12.22° C | 52% | 1001.5 hPa | 0 mm | 0 m/s | - | - |
| 1777934821 | 12.22° C | 52% | 1001.4 hPa | 0 mm | 3.58 m/s, 343° | - | - |
* Rain latest hour (hover to see other rain measurements)
** Current wind speed in m/s (hover to see current wind gust speed)